Preview of NWS' New Version of Forecast
This preview is not operational and should not be used for support decisions.
Latest weather observations around

Hot Springs, Memorial Field Airport (KHOT)

Using English Units (Switch to International System of Units)
Date/ Time (CDT) Wind (mph) Vis. (mi) Weather Sky Cond. Temp (°F) Rel. Humidity Wind Chill (°F) Heat Index (°F) Pressure Precip. (in)
Air Dwpt 6 hour Altimeter (inHg) Sea level (inHg) 1 hr 3 hr 6 hr
Max Min
Sep 20 14:53 SE 5 10 Cloudy SCT016 BKN055 OVC070 76 73     91%   77 30.08 30.06 0    
Sep 20 14:41 SSE 10 10 Cloudy SCT016 BKN049 OVC070 76 73     91%   77 30.08   0    
Sep 20 14:03 Calm 10 Cloudy BKN012 BKN048 OVC065 75 73     94%   77 30.1   0    
Sep 20 13:53 Calm 10 Light Rain SCT014 BKN050 OVC060 74 73     97%   76 30.1 30.09 0    
Sep 20 12:53 ENE 5 10 Light Rain FEW011 OVC055 73 72     96%   75 30.11 30.09 0   0
Sep 20 12:51 ENE 6 9 Light Rain SCT011 OVC055 73 72     94%   75 30.11   0    
Sep 20 12:21 E 6 10 Light Rain BKN011 OVC055 72 72     100%   74 30.12   0    
Sep 20 11:53 E 5 10 Cloudy OVC055 72 70     93%   73 30.12 30.1 0    
Sep 20 10:53 SE 5 7 Light Rain FEW013 OVC060 71 70     96%   72 30.12 30.11 0    
Sep 20 10:49 6 6 Light Rain and Fog/Mist FEW013 SCT017 OVC060 72 70     94%   73 30.13   0    
Sep 20 10:40 S 10 4 Cloudy SCT012 BKN017 OVC070 72 71     97%   73 30.13   0    
Sep 20 10:27 SSW 9 6 Cloudy BKN014 OVC075 73 71     94%   74 30.12   0    
Sep 20 10:12 SSE 6 9 Cloudy SCT014 SCT019 OVC080 73 72     96%   75 30.12   0    
Sep 20 09:53 S 3 9 Cloudy BKN014 BKN020 OVC080 73 72     96%   75 30.12 30.1 0 0  
Sep 20 09:00 S 7 10 Cloudy BKN012 BKN017 OVC029 74 71     91%   75 30.09        
Sep 20 08:53 3 10 Cloudy SCT012 BKN017 OVC029 74 71     91%   75 30.09 30.07      
Sep 20 08:31 SSE 8 10 Cloudy FEW022 BKN028 OVC040 74 71     91%   75 30.08        
Sep 20 07:53 SE 7 10 Mostly Cloudy FEW013 SCT036 BKN100 74 71     91%   75 30.08 30.05      
Sep 20 06:53 SE 5 10 Cloudy BKN032 BKN040 OVC055 73 71     94%   74 30.07 30.05      
Sep 20 05:53 E 7 10 Partly Cloudy FEW042 SCT049 72 71     97%   73 30.05 30.03      
Sep 20 04:53 E 5 10 Mostly Cloudy SCT041 BKN080 72 71     97%   73 30.04 30.02      
Sep 20 03:53 E 5 10 Mostly Clear FEW070 71 70     96%   72 30.02 30      
Sep 20 02:53 E 5 10 Clear CLR 72 71     97%   73 30.02 30      
Sep 20 01:53 ENE 5 10 Clear CLR 72 70     93%   73 30.03 30      
Sep 20 00:53 Calm 10 Clear CLR 72 70     93%   73 30.02 30      
Sep 19 23:53 ENE 3 10 Clear CLR 74 70     87%   75 30.03 30      
Sep 19 22:53 ESE 5 10 Clear CLR 77 71     82%   78 30.04 30.01      
Sep 19 21:53 ESE 6 10 Mostly Cloudy FEW070 BKN090 79 72     79%   82 30.03 30.01      
Sep 19 20:53 S 3 10 Mostly Clear FEW065 80 72     76%   84 30 29.98      
Sep 19 19:53 SSE 6 10 Clear CLR 81 73     77%   86 29.98 29.95      
Sep 19 18:53 Calm 10 Clear CLR 81 74     79%   86 29.97 29.95     0
Sep 19 17:53 Calm 10 Clear CLR 81 75     82%   87 29.96 29.94      
Sep 19 16:53 Calm 10 Mostly Clear FEW043 80 77     90%   86 29.97 29.95 0    
Sep 19 16:30 WSW 6 10 Light Rain SCT047 BKN060 BKN070 80 76     87%   85 29.98   0    
Sep 19 16:18 SW 8 10 Light Rain BKN050 OVC075 79 76     90%   83 29.98   0    
Sep 19 16:10 SW 11 2 Light Rain and Fog/Mist BKN055 BKN075 OVC100 78 76     93%   80 29.98   0    
Sep 19 16:02 SW 14 1.5 Heavy Rain and Fog/Mist OVC050 79 75     88%   83 29.97   0    
Sep 19 16:00 SSW 13 2.5 Heavy Rain OVC050 80 75     85%   85 29.97   0    
Sep 19 15:53   10 Thunderstorms OVC050 87 70     57%   92 29.96 29.94      
Sep 19 15:50 S 10 10 Thunderstorms BKN055 90 68     49%   93 29.95        
Sep 19 14:53 E 10 10 Partly Cloudy SCT055 92 68     46%   96 29.96 29.94      
Sep 19 13:53 SE 10 10 Mostly Clear FEW060 93 67     43%   97 29.98 29.96      
Sep 19 12:53 Calm 10 Mostly Clear FEW048 92 68     46%   96 30 29.98      
Sep 19 11:53 3 10 Partly Cloudy FEW041 SCT080 89 69     52%   94 30.02 29.99      
Sep 19 10:53 S 6 10 Clear CLR 86 70     59%   91 30.02 30      
Sep 19 09:53 S 3 10 Clear CLR 82 73     74%   87 30.02 29.99      
Sep 19 08:53 Calm 10 Clear CLR 80 73     79%   84 30.01 29.98      
Sep 19 07:53 Calm 10 Clear CLR 75 72     90%   76 30 29.98      
Sep 19 06:53 Calm 10 Clear CLR 72 71     97%   73 29.98 29.96      
Sep 19 05:53 Calm 10 Clear CLR 73 72     96%   75 29.97 29.95      
Sep 19 04:53 Calm 10 Clear CLR 74 71     91%   75 29.96 29.94      
Sep 19 03:53 NE 3 10 Clear CLR 74 72     94%   75 29.96 29.94      
Sep 19 02:53 Calm 10 Clear CLR 75 73     94%   77 29.97 29.95      
Sep 19 01:53 ENE 3 10 Partly Cloudy SCT070 76 73     91%   77 29.97 29.95      
Sep 19 00:53 ENE 3 10 Mostly Clear FEW070 77 74     90%   79 29.97 29.94     0
Sep 18 23:53 ENE 6 10 Clear CLR 76 74     94%   78 29.98 29.96      
Sep 18 22:53 Calm 10 Clear CLR 80 74     82%   85 29.97 29.95      
Sep 18 21:53 Calm 10 Mostly Cloudy FEW075 BKN110 82 73     74%   87 29.97 29.94 0 0  
Sep 18 20:53   10 Cloudy BKN070 OVC085 85 70     61%   89 29.95 29.93      
Sep 18 19:53 SSE 5 10 Mostly Cloudy SCT075 BKN100 88 69     54%   92 29.94 29.91      
Sep 18 18:53 E 6 10 Clear CLR 91 67     45%   94 29.93 29.91      
Sep 18 17:53 SE 8 10 Clear CLR 93 65     40%   95 29.93 29.9      
Sep 18 16:53 ESE 9 10 Clear CLR 95 67     40%   99 29.93 29.9      
Sep 18 15:53 ESE 9 10 Partly Cloudy FEW065 SCT085 96 65     36%   99 29.93 29.91      
Sep 18 14:53 5 10 Mostly Clear FEW070 94 66     40%   97 29.94 29.92      
Sep 18 13:53 7 10 Partly Cloudy FEW060 FEW075 SCT095 96 66     38%   100 29.97 29.94      
Sep 18 12:53 7 10 Clear CLR 95 68     42%   100 29.99 29.97      
Sep 18 11:53 ESE 11 10 Clear CLR 93 67     43%   97 30.01 29.98      
Sep 18 08:53 E 3 10 Clear   81 69     67%   84 30.01 29.99      
Sep 18 07:53 Calm 9 Clear CLR 75 70     84%   76 30 29.98      
Sep 18 06:53 Calm 10 Clear CLR 72 69     91%   73 30 29.98      
Sep 18 05:53 Calm 10 Clear CLR 73 69     87%   74 29.99 29.96      
Sep 18 04:53 Calm 10 Clear CLR 74 69     85%   75 29.97 29.94      
Sep 18 03:53 Calm 10 Clear CLR 75 68     79%   76 29.97 29.95      
Sep 18 02:53 E 6 10 Clear CLR 77 68     74%   78 29.97 29.95      
Sep 18 01:53 ESE 3 10 Clear CLR 77 68     74%   78 29.98 29.95      
Sep 18 00:53 Calm 10 Clear CLR 78 69     74%   79 29.97 29.95      
Sep 17 23:53 Calm 10 Clear CLR 79 69     72%   80 29.98 29.95      
Sep 17 22:53 E 3 10 Clear CLR 82 68     63%   85 29.98 29.96      
Sep 17 21:53 E 3 10 Clear CLR 84 68     59%   87 29.98 29.96      
Sep 17 20:53 E 7 10 Clear CLR 84 67     57%   87 29.96 29.94      
Sep 17 19:53 E 5 10 Clear CLR 86 66     51%   88 29.95 29.93      
Sep 17 18:53 ESE 9 10 Clear CLR 92 65     41%   94 29.94 29.92      
Sep 17 17:53 ESE 8 10 Clear CLR 94 65     39%   96 29.95 29.93      
Sep 17 16:53 SSE 10 10 Mostly Clear FEW070 96 64     35%   98 29.95 29.93      
Sep 17 15:53 SSE 8 10 Clear CLR 94 64     37%   96 29.97 29.95      
Sep 17 14:53 ESE 10 10 Mostly Clear FEW070 FEW090 97 66     37%   101 29.99 29.96      
May 15 01:53 WNW 3 10 Clear CLR 73 66     79%   74 29.96 29.93      
May 14 12:53 S 7 10 Clear CLR 88 68     52%   92 30 29.98      
May 14 11:53 SSW 8 10 Clear CLR 87 68     53%   91 30.02 30      
May 13 06:53 Calm 10 Clear CLR 68 65     90%     30.07 30.05      
May 13 00:53 SSE 3 10 Clear CLR 76 67     74%   77 30.02 29.99      
May 12 02:53 SW 11 10 Clear CLR 75 66     74%   76 29.97 29.95      
May 12 00:53 S 7 10 Clear CLR 77 64     64%   77 29.97 29.95      
May 11 14:53 SW 10 10 Clear CLR 87 60     40%   87 29.97 29.94      
Jun 11 21:53 SE 8 10 Clear   82 72     72%   87 29.98 29.96      
Jun 10 21:53 ESE 3 10 Clear CLR 76 63     64%   76 29.95 29.93      
Jun 10 10:53 S 10 10 Clear CLR 80 62     54%   81 30 29.98      
Jun 08 18:53 NE 9 10 Clear   80 54     41%   80 29.92 29.9      
Jun 08 13:53   10 Clear CLR 83 55     38%   82 29.99 29.98      
Jun 08 07:53 Calm 10 Clear CLR 64 59     84%     30.03 30.02      
Jun 06 10:53 ENE 10 10 Mostly Clear FEW033 83 71     67%   88 29.85 29.83      
Jun 06 01:07 Calm 10 Partly Cloudy SCT016 70 69     97%     29.81        
Notice The following observation data may not be complete
Jun 05 15:38   10 Mostly Clear FEW006          %